Time,TemperatureF,DewpointF,PressureIn,WindDirection,WindDirectionDegrees,WindSpeedMPH,WindSpeedGustMPH,Humidity,HourlyPrecipIn,Conditions,Clouds,dailyrainin,SolarRadiationWatts/m^2,SoftwareType,DateUTC
2013-03-17 00:05:00,34.4,19.9,29.72,SSW,208,2.0,13.0,55,0.00,,,0.00,0,Wunderground v.1.15,2013-03-17 06:05:00,
2013-03-17 00:15:00,34.1,20.0,29.72,SSW,208,0.0,9.0,56,0.00,,,0.00,0,Wunderground v.1.15,2013-03-17 06:15:00,
2013-03-17 00:25:00,33.8,19.3,29.70,SSW,213,1.0,9.0,55,0.00,,,0.00,0,Wunderground v.1.15,2013-03-17 06:25:00,
2013-03-17 00:35:00,33.5,19.9,29.70,SSW,213,1.0,9.0,57,0.00,,,0.00,0,Wunderground v.1.15,2013-03-17 06:35:00,
2013-03-17 00:45:00,33.2,19.6,29.69,WSW,251,1.0,2.0,57,0.00,,,0.00,0,Wunderground v.1.15,2013-03-17 06:45:00,
2013-03-17 00:50:00,33.1,19.5,29.69,WSW,251,1.0,1.0,57,0.00,,,0.00,0,Wunderground v.1.15,2013-03-17 06:50:00,
2013-03-17 01:00:00,32.8,19.2,29.70,South,186,2.0,2.0,57,0.00,,,0.00,0,Wunderground v.1.15,2013-03-17 07:00:00,
2013-03-17 01:05:00,32.8,18.8,29.70,SSW,195,2.0,6.0,56,0.00,,,0.00,0,Wunderground v.1.15,2013-03-17 07:05:00,
2013-03-17 01:15:00,32.7,18.7,29.69,SW,229,2.0,11.0,56,0.00,,,0.00,0,Wunderground v.1.15,2013-03-17 07:15:00,
2013-03-17 01:20:00,32.7,19.1,29.69,SW,230,2.0,2.0,57,0.00,,,0.00,0,Wunderground v.1.15,2013-03-17 07:20:00,
2013-03-17 01:30:00,32.7,19.1,29.65,SW,224,1.0,1.0,57,0.00,,,0.00,0,Wunderground v.1.15,2013-03-17 07:30:00,
2013-03-17 01:40:00,32.5,18.9,29.64,South,171,1.0,8.0,57,0.00,,,0.00,0,Wunderground v.1.15,2013-03-17 07:40:00,
2013-03-17 01:50:00,32.2,19.1,29.64,South,178,1.0,1.0,58,0.00,,,0.00,0,Wunderground v.1.15,2013-03-17 07:50:00,
2013-03-17 02:00:00,31.9,19.6,29.65,South,179,0.0,8.0,60,0.00,,,0.00,0,Wunderground v.1.15,2013-03-17 08:00:00,
2013-03-17 02:05:00,31.8,19.1,29.65,South,188,2.0,8.0,59,0.00,,,0.00,0,Wunderground v.1.15,2013-03-17 08:05:00,
2013-03-17 02:15:00,31.5,18.4,29.65,SSE,157,4.0,8.0,58,0.00,,,0.00,0,Wunderground v.1.15,2013-03-17 08:15:00,
2013-03-17 02:20:00,31.5,18.4,29.65,SSE,157,3.0,3.0,58,0.00,,,0.00,0,Wunderground v.1.15,2013-03-17 08:20:00,
2013-03-17 02:25:00,31.3,18.6,29.64,SSE,154,2.0,8.0,59,0.00,,,0.00,0,Wunderground v.1.15,2013-03-17 08:25:00,
2013-03-17 02:35:00,31.2,18.5,29.64,SSE,165,2.0,8.0,59,0.00,,,0.00,0,Wunderground v.1.15,2013-03-17 08:35:00,
2013-03-17 02:45:00,31.0,18.3,29.64,South,175,2.0,10.0,59,0.00,,,0.00,0,Wunderground v.1.15,2013-03-17 08:45:00,
2013-03-17 02:55:00,31.0,18.7,29.64,South,175,0.0,10.0,60,0.00,,,0.00,0,Wunderground v.1.15,2013-03-17 08:55:00,
2013-03-17 03:05:00,30.7,19.2,29.63,South,175,0.0,10.0,62,0.00,,,0.00,0,Wunderground v.1.15,2013-03-17 09:05:00,
2013-03-17 03:15:00,30.4,18.9,29.63,South,175,0.0,9.0,62,0.00,,,0.00,0,Wunderground v.1.15,2013-03-17 09:15:00,
2013-03-17 03:20:00,30.3,19.2,29.63,SSW,198,1.0,9.0,63,0.00,,,0.00,0,Wunderground v.1.15,2013-03-17 09:20:00,
2013-03-17 03:25:00,30.0,18.2,29.62,SSW,199,2.0,9.0,61,0.00,,,0.00,0,Wunderground v.1.15,2013-03-17 09:25:00,
2013-03-17 03:35:00,30.0,18.2,29.62,SSW,199,2.0,4.0,61,0.00,,,0.00,0,Wunderground v.1.15,2013-03-17 09:35:00,
2013-03-17 03:45:00,30.0,18.2,29.61,South,171,2.0,8.0,61,0.00,,,0.00,0,Wunderground v.1.15,2013-03-17 09:45:00,
2013-03-17 03:50:00,30.1,17.9,29.61,SSW,212,2.0,8.0,60,0.00,,,0.00,0,Wunderground v.1.15,2013-03-17 09:50:00,
2013-03-17 04:00:00,30.1,17.5,29.61,SSW,202,3.0,3.0,59,0.00,,,0.00,0,Wunderground v.1.15,2013-03-17 10:00:00,
2013-03-17 04:05:00,30.1,17.1,29.61,SSW,192,4.0,4.0,58,0.00,,,0.00,0,Wunderground v.1.15,2013-03-17 10:05:00,
2013-03-17 04:15:00,30.3,17.3,29.60,South,182,2.0,8.0,58,0.00,,,0.00,0,Wunderground v.1.15,2013-03-17 10:15:00,
2013-03-17 04:20:00,30.3,16.9,29.60,South,184,2.0,8.0,57,0.00,,,0.00,0,Wunderground v.1.15,2013-03-17 10:20:00,
2013-03-17 04:30:00,30.3,17.3,29.61,South,179,1.0,8.0,58,0.00,,,0.00,0,Wunderground v.1.15,2013-03-17 10:30:00,
2013-03-17 04:40:00,30.3,17.7,29.59,SW,216,1.0,7.0,59,0.00,,,0.00,0,Wunderground v.1.15,2013-03-17 10:40:00,
2013-03-17 04:50:00,30.1,17.5,29.59,SSW,206,1.0,1.0,59,0.00,,,0.00,0,Wunderground v.1.15,2013-03-17 10:50:00,
2013-03-17 04:55:00,30.0,17.4,29.59,SSW,206,1.0,7.0,59,0.00,,,0.00,0,Wunderground v.1.15,2013-03-17 10:55:00,
2013-03-17 05:05:00,29.8,17.2,29.58,SSW,210,2.0,7.0,59,0.00,,,0.00,0,Wunderground v.1.15,2013-03-17 11:05:00,
2013-03-17 05:15:00,30.0,17.0,29.58,SW,229,2.0,8.0,58,0.00,,,0.00,0,Wunderground v.1.15,2013-03-17 11:15:00,
2013-03-17 05:25:00,30.1,16.7,29.60,SW,236,4.0,4.0,57,0.00,,,0.00,0,Wunderground v.1.15,2013-03-17 11:25:00,
2013-03-17 05:35:00,30.3,16.0,29.60,SW,220,3.0,10.0,55,0.00,,,0.00,0,Wunderground v.1.15,2013-03-17 11:35:00,
2013-03-17 05:45:00,30.6,15.5,29.59,West,278,5.0,16.0,53,0.00,,,0.00,0,Wunderground v.1.15,2013-03-17 11:45:00,
2013-03-17 05:50:00,30.7,15.1,29.59,NW,325,5.0,16.0,52,0.00,,,0.00,0,Wunderground v.1.15,2013-03-17 11:50:00,
2013-03-17 06:00:00,31.0,14.0,29.58,WSW,256,5.0,5.0,49,0.00,,,0.00,0,Wunderground v.1.15,2013-03-17 12:00:00,
2013-03-17 06:05:00,31.2,14.2,29.58,SW,227,5.0,16.0,49,0.00,,,0.00,0,Wunderground v.1.15,2013-03-17 12:05:00,
2013-03-17 06:15:00,31.5,13.6,29.58,WNW,301,4.0,15.0,47,0.00,,,0.00,0,Wunderground v.1.15,2013-03-17 12:15:00,
2013-03-17 06:20:00,31.6,13.7,29.58,SW,220,4.0,4.0,47,0.00,,,0.00,0,Wunderground v.1.15,2013-03-17 12:20:00,
2013-03-17 06:30:00,31.9,13.4,29.57,WSW,241,6.0,6.0,46,0.00,,,0.00,0,Wunderground v.1.15,2013-03-17 12:30:00,
2013-03-17 06:40:00,32.2,13.2,29.56,West,260,8.0,18.0,45,0.00,,,0.00,0,Wunderground v.1.15,2013-03-17 12:40:00,
2013-03-17 06:50:00,32.5,13.0,29.56,West,281,7.0,18.0,44,0.00,,,0.00,0,Wunderground v.1.15,2013-03-17 12:50:00,
2013-03-17 07:00:00,32.7,12.6,29.56,NW,319,6.0,6.0,43,0.00,,,0.00,0,Wunderground v.1.15,2013-03-17 13:00:00,
2013-03-17 07:05:00,32.7,12.1,29.56,WNW,302,6.0,10.0,42,0.00,,,0.00,0,Wunderground v.1.15,2013-03-17 13:05:00,
2013-03-17 07:15:00,32.8,12.7,29.57,WNW,291,6.0,18.0,43,0.00,,,0.00,0,Wunderground v.1.15,2013-03-17 13:15:00,
2013-03-17 07:20:00,32.9,11.7,29.57,WNW,282,5.0,18.0,41,0.00,,,0.00,5,Wunderground v.1.15,2013-03-17 13:20:00,
2013-03-17 07:30:00,33.2,13.6,29.58,NW,318,7.0,18.0,44,0.00,,,0.00,19,Wunderground v.1.15,2013-03-17 13:30:00,
2013-03-17 07:40:00,33.7,14.1,29.58,SW,236,5.0,5.0,44,0.00,,,0.00,44,Wunderground v.1.15,2013-03-17 13:40:00,
2013-03-17 07:45:00,34.0,15.4,29.58,WSW,247,4.0,9.0,46,0.00,,,0.00,90,Wunderground v.1.15,2013-03-17 13:45:00,
2013-03-17 07:55:00,34.7,17.5,29.57,NW,309,7.0,25.0,49,0.00,,,0.00,111,Wunderground v.1.15,2013-03-17 13:55:00,
2013-03-17 08:05:00,35.0,21.7,29.57,SW,236,8.0,25.0,58,0.00,,,0.00,69,Wunderground v.1.15,2013-03-17 14:05:00,
2013-03-17 08:15:00,34.9,23.6,29.57,West,278,6.0,20.0,63,0.00,,,0.00,56,Wunderground v.1.15,2013-03-17 14:15:00,
2013-03-17 08:25:00,34.6,24.4,29.59,WSW,253,3.0,20.0,66,0.00,,,0.00,30,Wunderground v.1.15,2013-03-17 14:25:00,
2013-03-17 08:35:00,34.1,25.0,29.59,WNW,287,2.0,20.0,69,0.00,,,0.00,33,Wunderground v.1.15,2013-03-17 14:35:00,
2013-03-17 08:40:00,33.8,25.0,29.57,West,261,2.0,15.0,70,0.00,,,0.00,37,Wunderground v.1.15,2013-03-17 14:40:00,
2013-03-17 08:50:00,33.5,25.4,29.57,WSW,237,2.0,15.0,72,0.00,,,0.00,95,Wunderground v.1.15,2013-03-17 14:50:00,
2013-03-17 09:00:00,33.2,25.1,29.57,WSW,251,4.0,15.0,72,0.00,,,0.00,14,Wunderground v.1.15,2013-03-17 15:00:00,
2013-03-17 09:05:00,32.9,25.2,29.61,WSW,246,4.0,15.0,73,0.00,,,0.00,7,Wunderground v.1.15,2013-03-17 15:05:00,
2013-03-17 09:15:00,32.5,25.5,29.61,SSW,199,3.0,4.0,75,0.00,,,0.00,7,Wunderground v.1.15,2013-03-17 15:15:00,
2013-03-17 09:20:00,32.2,25.2,29.61,SSW,212,3.0,13.0,75,0.00,,,0.00,12,Wunderground v.1.15,2013-03-17 15:20:00,
2013-03-17 09:30:00,31.6,24.9,29.60,SW,234,5.0,5.0,76,0.00,,,0.00,30,Wunderground v.1.15,2013-03-17 15:30:00,
2013-03-17 09:40:00,31.5,25.1,29.59,SW,220,2.0,2.0,77,0.00,,,0.00,30,Wunderground v.1.15,2013-03-17 15:40:00,
2013-03-17 09:50:00,31.6,25.8,29.59,WSW,237,1.0,1.0,79,0.00,,,0.00,48,Wunderground v.1.15,2013-03-17 15:50:00,
2013-03-17 10:00:00,32.1,25.7,29.58,WSW,241,5.0,5.0,77,0.00,,,0.00,40,Wunderground v.1.15,2013-03-17 16:00:00,
2013-03-17 10:05:00,32.2,25.5,29.58,SW,226,6.0,7.0,76,0.00,,,0.00,21,Wunderground v.1.15,2013-03-17 16:05:00,
2013-03-17 10:15:00,32.4,25.4,29.58,WNW,292,4.0,15.0,75,0.00,,,0.00,39,Wunderground v.1.15,2013-03-17 16:15:00,
2013-03-17 10:20:00,32.5,25.5,29.58,SSW,209,4.0,15.0,75,0.00,,,0.00,39,Wunderground v.1.15,2013-03-17 16:20:00,
2013-03-17 10:25:00,32.7,25.6,29.55,WSW,253,5.0,15.0,75,0.00,,,0.00,81,Wunderground v.1.15,2013-03-17 16:25:00,
2013-03-17 10:35:00,33.2,26.1,29.55,WNW,288,3.0,15.0,75,0.00,,,0.00,55,Wunderground v.1.15,2013-03-17 16:35:00,
2013-03-17 10:45:00,33.1,25.1,29.55,WNW,296,6.0,11.0,72,0.00,,,0.00,58,Wunderground v.1.15,2013-03-17 16:45:00,
2013-03-17 10:55:00,33.7,24.3,29.54,West,277,7.0,17.0,68,0.00,,,0.00,90,Wunderground v.1.15,2013-03-17 16:55:00,
2013-03-17 11:00:00,34.7,24.5,29.54,WSW,237,7.0,17.0,66,0.00,,,0.00,99,Wunderground v.1.15,2013-03-17 17:00:00,
2013-03-17 11:05:00,35.8,24.8,29.50,NW,309,7.0,17.0,64,0.00,,,0.00,157,Wunderground v.1.15,2013-03-17 17:05:00,
2013-03-17 11:15:00,37.2,24.2,29.50,NNW,346,7.0,7.0,59,0.00,,,0.01,274,Wunderground v.1.15,2013-03-17 17:15:00,
2013-03-17 11:25:00,38.2,21.6,29.51,WSW,239,9.0,20.0,51,0.06,,,0.02,334,Wunderground v.1.15,2013-03-17 17:25:00,
2013-03-17 11:30:00,38.5,21.5,29.51,NW,318,10.0,10.0,50,0.04,,,0.02,628,Wunderground v.1.15,2013-03-17 17:30:00,
2013-03-17 11:40:00,38.6,20.1,29.49,North,349,11.0,11.0,47,0.00,,,0.02,426,Wunderground v.1.15,2013-03-17 17:40:00,
2013-03-17 11:50:00,39.3,20.2,29.49,West,281,9.0,25.0,46,0.00,,,0.02,329,Wunderground v.1.15,2013-03-17 17:50:00,
2013-03-17 12:00:00,39.8,18.5,29.49,NW,319,10.0,10.0,42,0.00,,,0.02,804,Wunderground v.1.15,2013-03-17 18:00:00,
2013-03-17 12:05:00,40.1,17.7,29.49,South,178,8.0,25.0,40,0.00,,,0.02,806,Wunderground v.1.15,2013-03-17 18:05:00,
2013-03-17 12:15:00,40.6,17.5,29.47,NNW,330,10.0,26.0,39,0.00,,,0.02,867,Wunderground v.1.15,2013-03-17 18:15:00,
2013-03-17 12:20:00,40.5,16.9,29.47,NNW,339,10.0,10.0,38,0.00,,,0.02,137,Wunderground v.1.15,2013-03-17 18:20:00,
2013-03-17 12:30:00,40.3,13.4,29.45,WSW,257,11.0,11.0,33,0.00,,,0.02,151,Wunderground v.1.15,2013-03-17 18:30:00,
2013-03-17 12:40:00,41.3,12.9,29.45,WNW,282,9.0,28.0,31,0.00,,,0.03,362,Wunderground v.1.15,2013-03-17 18:40:00,
2013-03-17 12:50:00,40.6,12.3,29.45,West,278,10.0,28.0,31,0.00,,,0.03,313,Wunderground v.1.15,2013-03-17 18:50:00,
2013-03-17 12:55:00,40.5,13.6,29.44,NW,308,12.0,28.0,33,0.00,,,0.03,239,Wunderground v.1.15,2013-03-17 18:55:00,
2013-03-17 13:05:00,41.5,13.8,29.43,SW,236,8.0,28.0,32,0.00,,,0.03,238,Wunderground v.1.15,2013-03-17 19:05:00,
2013-03-17 13:15:00,40.5,13.6,29.43,WNW,289,9.0,28.0,33,0.00,,,0.03,171,Wunderground v.1.15,2013-03-17 19:15:00,
2013-03-17 13:20:00,39.6,14.2,29.43,South,189,11.0,11.0,35,0.00,,,0.03,167,Wunderground v.1.15,2013-03-17 19:20:00,
2013-03-17 13:30:00,38.8,15.3,29.45,NW,318,5.0,28.0,38,0.00,,,0.03,162,Wunderground v.1.15,2013-03-17 19:30:00,
2013-03-17 13:35:00,38.2,15.4,29.45,West,263,8.0,28.0,39,0.00,,,0.03,102,Wunderground v.1.15,2013-03-17 19:35:00,
2013-03-17 13:45:00,35.9,18.6,29.48,NW,325,10.0,28.0,49,0.00,,,0.03,46,Wunderground v.1.15,2013-03-17 19:45:00,
2013-03-17 13:55:00,34.7,17.9,29.50,NNW,336,7.0,28.0,50,0.00,,,0.03,113,Wunderground v.1.15,2013-03-17 19:55:00,
2013-03-17 14:05:00,35.6,15.8,29.47,WNW,282,6.0,28.0,44,0.00,,,0.03,97,Wunderground v.1.15,2013-03-17 20:05:00,
2013-03-17 14:15:00,35.8,18.5,29.47,SW,236,6.0,9.0,49,0.00,,,0.03,69,Wunderground v.1.15,2013-03-17 20:15:00,
2013-03-17 14:20:00,35.8,15.5,29.47,West,280,5.0,23.0,43,0.00,,,0.03,55,Wunderground v.1.15,2013-03-17 20:20:00,
2013-03-17 14:25:00,36.2,15.3,29.48,SSW,202,7.0,23.0,42,0.00,,,0.03,56,Wunderground v.1.15,2013-03-17 20:25:00,
2013-03-17 14:35:00,37.0,9.1,29.48,WNW,295,7.0,23.0,31,0.00,,,0.03,63,Wunderground v.1.15,2013-03-17 20:35:00,
2013-03-17 14:45:00,36.9,6.8,29.47,NW,313,9.0,20.0,28,0.00,,,0.03,120,Wunderground v.1.15,2013-03-17 20:45:00,
2013-03-17 14:50:00,36.8,8.9,29.47,WNW,301,10.0,20.0,31,0.00,,,0.03,88,Wunderground v.1.15,2013-03-17 20:50:00,
2013-03-17 15:00:00,36.6,12.7,29.46,SW,234,7.0,20.0,37,0.00,,,0.03,33,Wunderground v.1.15,2013-03-17 21:00:00,
2013-03-17 15:05:00,36.0,14.5,29.46,WSW,248,7.0,20.0,41,0.00,,,0.03,63,Wunderground v.1.15,2013-03-17 21:05:00,
2013-03-17 15:15:00,36.0,16.2,29.49,WSW,240,7.0,11.0,44,0.00,,,0.03,185,Wunderground v.1.15,2013-03-17 21:15:00,
2013-03-17 15:20:00,37.6,11.7,29.49,SSW,198,9.0,9.0,34,0.00,,,0.03,181,Wunderground v.1.15,2013-03-17 21:20:00,
2013-03-17 15:30:00,39.5,9.8,29.45,SW,215,10.0,28.0,29,0.00,,,0.03,109,Wunderground v.1.15,2013-03-17 21:30:00,
2013-03-17 15:40:00,39.6,8.3,29.43,WNW,296,12.0,34.0,27,0.00,,,0.03,72,Wunderground v.1.15,2013-03-17 21:40:00,
2013-03-17 15:50:00,38.6,6.6,29.43,West,274,12.0,34.0,26,0.00,,,0.03,74,Wunderground v.1.15,2013-03-17 21:50:00,
2013-03-17 15:55:00,37.5,7.3,29.47,WNW,284,13.0,34.0,28,0.00,,,0.03,46,Wunderground v.1.15,2013-03-17 21:55:00,
2013-03-17 16:05:00,36.3,13.7,29.47,North,357,11.0,34.0,39,0.00,,,0.03,345,Wunderground v.1.15,2013-03-17 22:05:00,
2013-03-17 16:10:00,37.0,13.7,29.49,NW,316,13.0,13.0,38,0.00,,,0.03,172,Wunderground v.1.15,2013-03-17 22:10:00,
2013-03-17 16:25:00,35.3,14.5,29.51,WNW,284,13.0,31.0,42,0.00,,,0.03,172,Wunderground v.1.15,2013-03-17 22:25:00,
2013-03-17 16:35:00,34.0,14.9,29.51,WNW,287,12.0,31.0,45,0.00,,,0.03,33,Wunderground v.1.15,2013-03-17 22:35:00,
2013-03-17 16:45:00,34.4,14.7,29.52,NNW,342,11.0,38.0,44,0.00,,,0.03,282,Wunderground v.1.15,2013-03-17 22:45:00,
2013-03-17 16:55:00,34.3,14.1,29.52,West,277,11.0,38.0,43,0.00,,,0.03,53,Wunderground v.1.15,2013-03-17 22:55:00,
2013-03-17 17:05:00,33.1,15.5,29.54,WNW,287,12.0,38.0,48,0.00,,,0.03,42,Wunderground v.1.15,2013-03-17 23:05:00,
2013-03-17 17:15:00,33.1,14.5,29.54,WSW,237,12.0,30.0,46,0.00,,,0.03,72,Wunderground v.1.15,2013-03-17 23:15:00,
2013-03-17 17:25:00,33.4,14.8,29.52,NW,309,8.0,30.0,46,0.00,,,0.03,37,Wunderground v.1.15,2013-03-17 23:25:00,
2013-03-17 17:35:00,33.1,14.5,29.52,NNW,337,11.0,30.0,46,0.00,,,0.03,33,Wunderground v.1.15,2013-03-17 23:35:00,
2013-03-17 17:45:00,32.8,14.3,29.53,WNW,295,10.0,25.0,46,0.00,,,0.03,12,Wunderground v.1.15,2013-03-17 23:45:00,
2013-03-17 17:55:00,31.6,17.3,29.57,North,359,11.0,25.0,55,0.00,,,0.03,28,Wunderground v.1.15,2013-03-17 23:55:00,
2013-03-17 18:00:00,31.3,15.7,29.57,West,261,11.0,11.0,52,0.00,,,0.03,11,Wunderground v.1.15,2013-03-18 00:00:00,
2013-03-17 18:05:00,31.2,16.0,29.57,NNW,340,7.0,25.0,53,0.00,,,0.03,11,Wunderground v.1.15,2013-03-18 00:05:00,
2013-03-17 18:15:00,31.0,16.7,29.57,WSW,256,5.0,25.0,55,0.00,,,0.03,5,Wunderground v.1.15,2013-03-18 00:15:00,
2013-03-17 18:25:00,30.3,17.3,29.56,South,186,5.0,25.0,58,0.00,,,0.03,0,Wunderground v.1.15,2013-03-18 00:25:00,
2013-03-17 18:35:00,29.7,16.3,29.56,NW,313,9.0,9.0,57,0.00,,,0.03,0,Wunderground v.1.15,2013-03-18 00:35:00,
2013-03-17 18:45:00,29.1,18.8,29.58,WNW,296,9.0,26.0,65,0.00,,,0.03,0,Wunderground v.1.15,2013-03-18 00:45:00,
2013-03-17 18:50:00,28.8,19.6,29.58,NNW,329,10.0,26.0,68,0.00,,,0.03,0,Wunderground v.1.15,2013-03-18 00:50:00,
2013-03-17 19:00:00,28.4,19.9,29.60,NW,318,9.0,9.0,70,0.00,,,0.03,0,Wunderground v.1.15,2013-03-18 01:00:00,
2013-03-17 19:05:00,28.1,19.2,29.60,WNW,295,8.0,26.0,69,0.00,,,0.03,0,Wunderground v.1.15,2013-03-18 01:05:00,
2013-03-17 19:15:00,27.8,18.3,29.60,SW,232,9.0,32.0,67,0.00,,,0.03,0,Wunderground v.1.15,2013-03-18 01:15:00,
2013-03-17 19:25:00,27.6,17.0,29.59,NW,325,10.0,32.0,64,0.00,,,0.03,0,Wunderground v.1.15,2013-03-18 01:25:00,
2013-03-17 19:35:00,27.6,17.7,29.59,NNW,333,10.0,32.0,66,0.00,,,0.03,0,Wunderground v.1.15,2013-03-18 01:35:00,
2013-03-17 19:40:00,27.5,18.3,29.61,SW,222,9.0,9.0,68,0.00,,,0.03,0,Wunderground v.1.15,2013-03-18 01:40:00,
2013-03-17 19:45:00,27.3,17.8,29.61,SW,233,9.0,26.0,67,0.00,,,0.03,0,Wunderground v.1.15,2013-03-18 01:45:00,
2013-03-17 19:55:00,27.0,18.2,29.62,West,281,9.0,26.0,69,0.00,,,0.03,0,Wunderground v.1.15,2013-03-18 01:55:00,
2013-03-17 20:05:00,26.7,18.2,29.62,WNW,288,7.0,13.0,70,0.00,,,0.03,0,Wunderground v.1.15,2013-03-18 02:05:00,
2013-03-17 20:15:00,26.4,18.3,29.62,WSW,246,8.0,11.0,71,0.00,,,0.03,0,Wunderground v.1.15,2013-03-18 02:15:00,
2013-03-17 20:20:00,26.3,18.2,29.62,NW,316,8.0,8.0,71,0.00,,,0.03,0,Wunderground v.1.15,2013-03-18 02:20:00,
2013-03-17 20:30:00,25.8,17.7,29.67,West,275,9.0,9.0,71,0.00,,,0.03,0,Wunderground v.1.15,2013-03-18 02:30:00,
2013-03-17 20:40:00,25.4,17.6,29.69,WNW,284,8.0,8.0,72,0.00,,,0.03,0,Wunderground v.1.15,2013-03-18 02:40:00,
2013-03-17 20:45:00,25.1,17.3,29.69,West,278,8.0,14.0,72,0.00,,,0.03,0,Wunderground v.1.15,2013-03-18 02:45:00,
2013-03-17 20:55:00,24.7,17.6,29.70,WSW,237,7.0,14.0,74,0.00,,,0.03,0,Wunderground v.1.15,2013-03-18 02:55:00,
2013-03-17 21:00:00,24.5,17.4,29.70,WSW,237,6.0,18.0,74,0.00,,,0.03,0,Wunderground v.1.15,2013-03-18 03:00:00,
2013-03-17 21:05:00,24.2,17.1,29.70,WNW,292,7.0,18.0,74,0.00,,,0.03,0,Wunderground v.1.15,2013-03-18 03:05:00,
2013-03-17 21:15:00,23.6,16.8,29.74,WSW,250,6.0,24.0,75,0.00,,,0.03,0,Wunderground v.1.15,2013-03-18 03:15:00,
2013-03-17 21:25:00,23.2,16.4,29.75,SW,234,5.0,24.0,75,0.00,,,0.03,0,Wunderground v.1.15,2013-03-18 03:25:00,
2013-03-17 21:30:00,23.0,16.6,29.75,SW,229,5.0,24.0,76,0.00,,,0.03,0,Wunderground v.1.15,2013-03-18 03:30:00,
2013-03-17 21:40:00,22.7,16.3,29.79,WSW,243,4.0,16.0,76,0.00,,,0.03,0,Wunderground v.1.15,2013-03-18 03:40:00,
2013-03-17 21:50:00,22.2,15.5,29.79,WSW,248,6.0,6.0,75,0.00,,,0.03,0,Wunderground v.1.15,2013-03-18 03:50:00,
2013-03-17 21:55:00,22.2,15.5,29.80,WNW,289,5.0,7.0,75,0.00,,,0.03,0,Wunderground v.1.15,2013-03-18 03:55:00,
2013-03-17 22:00:00,22.1,15.1,29.80,SW,230,5.0,5.0,74,0.00,,,0.03,0,Wunderground v.1.15,2013-03-18 04:00:00,
2013-03-17 22:05:00,21.9,14.9,29.80,SSW,196,6.0,9.0,74,0.00,,,0.03,0,Wunderground v.1.15,2013-03-18 04:05:00,
2013-03-17 22:10:00,21.8,15.1,29.81,SW,230,7.0,15.0,75,0.00,,,0.03,0,Wunderground v.1.15,2013-03-18 04:10:00,
2013-03-17 22:20:00,21.4,14.4,29.81,SW,229,7.0,15.0,74,0.00,,,0.03,0,Wunderground v.1.15,2013-03-18 04:20:00,
2013-03-17 22:30:00,21.1,13.8,29.79,West,263,8.0,8.0,73,0.00,,,0.03,0,Wunderground v.1.15,2013-03-18 04:30:00,
2013-03-17 22:35:00,21.1,13.2,29.79,WNW,302,9.0,11.0,71,0.00,,,0.03,0,Wunderground v.1.15,2013-03-18 04:35:00,
2013-03-17 22:40:00,21.0,12.7,29.78,WNW,298,7.0,7.0,70,0.00,,,0.03,0,Wunderground v.1.15,2013-03-18 04:40:00,
2013-03-17 22:50:00,20.8,12.6,29.78,WNW,288,7.0,20.0,70,0.00,,,0.03,0,Wunderground v.1.15,2013-03-18 04:50:00,
2013-03-17 23:00:00,20.6,12.4,29.79,NNW,332,8.0,8.0,70,0.00,,,0.03,0,Wunderground v.1.15,2013-03-18 05:00:00,
2013-03-17 23:05:00,20.6,12.0,29.79,West,260,7.0,11.0,69,0.00,,,0.03,0,Wunderground v.1.15,2013-03-18 05:05:00,
2013-03-17 23:15:00,20.5,12.3,29.79,WNW,282,7.0,20.0,70,0.00,,,0.03,0,Wunderground v.1.15,2013-03-18 05:15:00,
2013-03-17 23:20:00,20.3,11.7,29.79,West,281,7.0,7.0,69,0.00,,,0.03,0,Wunderground v.1.15,2013-03-18 05:20:00,
2013-03-17 23:30:00,20.2,11.0,29.75,NNW,346,8.0,8.0,67,0.00,,,0.03,0,Wunderground v.1.15,2013-03-18 05:30:00,
2013-03-17 23:40:00,20.0,10.5,29.77,WNW,298,10.0,23.0,66,0.00,,,0.03,0,Wunderground v.1.15,2013-03-18 05:40:00,
2013-03-17 23:45:00,20.0,10.8,29.77,NNW,339,9.0,23.0,67,0.00,,,0.03,0,Wunderground v.1.15,2013-03-18 05:45:00,
2013-03-17 23:55:00,19.7,10.5,29.77,West,261,7.0,23.0,67,0.00,,,0.03,0,Wunderground v.1.15,2013-03-18 05:55:00,